Regional Weather Roundup
Issued by NWS

Home | Current Version | Previous Version | Graphics & Text | Print | Product List | Glossary On
Versions: 1 2 3 4 5 6 7 8 9 10 11 12 13 14 15 16 17 18 19 20 21 22 23 24 25 26 27 28 29 30 31 32 33 34 35 36 37 38 39 40 41 42 43 44 45 46 47 48 49 50
000
ASUS43 KBIS 220610
RWRND

NORTH DAKOTA REGIONAL WEATHER ROUNDUP
NATIONAL WEATHER SERVICE BISMARCK ND
100 AM CDT MON SEP 22 2014

NOTE: "FAIR" INDICATES FEW OR NO CLOUDS BELOW 12,000 FEET WITH NO
SIGNIFICANT WEATHER AND/OR OBSTRUCTIONS TO VISIBILITY.


NDZ001>003-009>011-017-220700-
NORTHWEST NORTH DAKOTA

CITY           SKY/WX    TMP DP  RH WIND       PRES   REMARKS
WILLISTON      CLEAR     48  39  71 CALM      30.13F
6HR MIN TEMP:  43; 6HR MAX TEMP:  71;

MINOT          CLEAR     53  40  61 SW6       30.14F
MINOT AFB      CLEAR     52  41  67 SW8       30.13F
$$

NDZ018>021-031>035-040>046-220700-
SOUTHWEST NORTH DAKOTA

CITY           SKY/WX    TMP DP  RH WIND       PRES   REMARKS
BISMARCK       CLEAR     46  42  86 CALM      30.21S
6HR MIN TEMP:  45; 6HR MAX TEMP:  71;

DICKINSON      CLEAR     45  36  70 S9        30.17F
GARRISON         N/A     49  44  83 CALM      30.17F
6HR MIN TEMP:  48; 6HR MAX TEMP:  66;

HETTINGER ARPT CLEAR     50  38  63 SE6       30.20F
$$

NDZ004>008-012>016-024-026-027-054-220700-
NORTHEAST NORTH DAKOTA

CITY           SKY/WX    TMP DP  RH WIND       PRES   REMARKS
GRAND FORKS    CLEAR     50  48  93 S9        30.16F
GRND FRKS AFB  CLEAR     49  49  99 SW6       30.16F
DEVILS LAKE    CLEAR     52  45  76 S5        30.15F
$$

NDZ022-023-025-028>030-036>039-047>053-220700-
SOUTHEAST NORTH DAKOTA

CITY           SKY/WX    TMP DP  RH WIND       PRES   REMARKS
FARGO          CLEAR     52  48  86 S7        30.20F
6HR MIN TEMP:  52; 6HR MAX TEMP:  62;

JAMESTOWN      CLEAR     46  43  89 S3        30.19F
$$



USA.gov is the U.S. government's official web portal to all federal, state and local government web resources and services.